Location: *
(46.4000°N, 12.6667°E)
Time: 07:14:21
(UTC+00:00)

CZ-4C R/B - Pass Details

Date: 09 April 2020
Orbit: 637 x 1365 km, 63.4° (Epoch: 02 June)

Event Time Altitude Azimuth Distance (km) Brightness Sun altitude
Rises 22:39:19 0° 315° (NW) 3,912 6.3 -35.1°
Reaches altitude 10° 22:42:04 10° 307° (NW) 3,052 5.5 -35.2°
Enters shadow 22:47:01 33° 270° (W) 1,961 4.0 -35.3°
